TimeEST,TemperatureF,Dew PointF,Humidity,Sea Level PressureIn,VisibilityMPH,Wind Direction,Wind SpeedMPH,Gust SpeedMPH,PrecipitationIn,Events,Conditions,WindDirDegrees,DateUTC
12:53 AM,28.9,26.1,89,30.31,5.0,West,10.4,-,N/A,,Overcast,270,2013-01-07 05:53:00
1:53 AM,28.9,26.1,89,30.31,5.0,West,5.8,-,N/A,,Overcast,270,2013-01-07 06:53:00
2:53 AM,28.9,26.1,89,30.33,5.0,Calm,Calm,-,N/A,,Overcast,0,2013-01-07 07:53:00
3:53 AM,28.9,26.1,89,30.35,5.0,SW,4.6,-,N/A,,Overcast,230,2013-01-07 08:53:00
4:53 AM,28.9,26.1,89,30.36,6.0,WSW,6.9,-,N/A,,Overcast,240,2013-01-07 09:53:00
5:53 AM,28.9,25.0,85,30.38,6.0,WSW,5.8,-,N/A,,Overcast,240,2013-01-07 10:53:00
6:53 AM,26.1,24.1,92,30.39,6.0,SW,5.8,-,N/A,,Overcast,220,2013-01-07 11:53:00
7:53 AM,23.0,21.0,92,30.42,3.0,SW,3.5,-,N/A,,Clear,220,2013-01-07 12:53:00
8:04 AM,21.2,19.4,93,30.39,2.5,SSW,4.6,-,N/A,,Clear,200,2013-01-07 13:04:00
8:53 AM,19.9,18.0,92,30.44,2.0,SSW,8.1,-,N/A,,Clear,210,2013-01-07 13:53:00
9:45 AM,24.8,21.2,86,30.42,3.0,SSW,8.1,-,N/A,,Clear,210,2013-01-07 14:45:00
9:53 AM,25.0,21.9,88,30.44,3.0,SSW,8.1,-,N/A,,Clear,210,2013-01-07 14:53:00
10:53 AM,27.0,23.0,85,30.44,3.0,South,10.4,-,N/A,,Clear,190,2013-01-07 15:53:00
11:53 AM,28.0,24.1,85,30.41,4.0,South,10.4,-,N/A,,Clear,190,2013-01-07 16:53:00
12:53 PM,30.0,25.0,82,30.38,6.0,SSW,13.8,-,N/A,,Haze,200,2013-01-07 17:53:00
2:53 PM,33.1,25.0,72,30.33,9.0,South,17.3,-,N/A,,Clear,190,2013-01-07 19:53:00
3:53 PM,33.1,25.0,72,30.31,10.0,SSW,15.0,-,N/A,,Clear,200,2013-01-07 20:53:00
4:53 PM,30.9,24.1,76,30.29,9.0,South,11.5,-,N/A,,Clear,180,2013-01-07 21:53:00
6:53 PM,27.0,21.9,81,30.30,9.0,South,6.9,-,N/A,,Clear,170,2013-01-07 23:53:00
7:53 PM,24.1,19.0,81,30.28,7.0,South,10.4,-,N/A,,Clear,170,2013-01-08 00:53:00
8:53 PM,25.0,19.9,81,30.25,7.0,South,13.8,-,N/A,,Clear,170,2013-01-08 01:53:00
9:53 PM,28.9,23.0,78,30.22,9.0,South,17.3,-,N/A,,Clear,180,2013-01-08 02:53:00
10:53 PM,28.0,21.9,78,30.22,9.0,SSW,9.2,-,N/A,,Clear,200,2013-01-08 03:53:00
11:53 PM,27.0,21.0,78,30.22,9.0,SSW,8.1,-,N/A,,Clear,200,2013-01-08 04:53:00